Regional Weather Roundup
Issued by NWS

Home | Current Version | Previous Version | Text Only | Print | Product List | Glossary Off
Versions: 1 2 3 4 5 6 7 8 9 10 11 12 13 14 15 16 17 18 19 20 21 22 23 24 25 26 27 28 29 30 31 32 33 34 35 36 37 38 39 40 41 42 43 44 45 46 47 48 49 50

000
ASUS45 KBOU 271307
RWRCO

WEATHER ROUNDUP FOR COLORADO
NATIONAL WEATHER SERVICE DENVER/BOULDER CO
700 AM MDT SUN JUL 27 2014

NOTE: "FAIR" INDICATES FEW OR NO CLOUDS BELOW 12000 FEET WITH NO
SIGNIFICANT WEATHER AND/OR OBSTRUCTIONS TO VISIBILITY.

COZ001>005-013-030-031-271400-
...NORTHWEST COLORADO...

CITY           SKY/WX    TMP DP  RH WIND       PRES   REMARKS
CRAIG          PTCLDY    50  50 100 CALM      30.38R
HAYDEN         PTCLDY    55  46  71 E8        30.39R
MEEKER         CLOUDY    59  49  69 E3        30.37R
MOUNT WERNER   NOT AVBL
STEAMBOAT SPGS PTCLDY    51  47  87 E3        30.42R
WALDEN         SUNNY     41  36  81 SE5       30.50R
$$

COZ006>008-011-271400-
...WEST CENTRAL VALLEYS...

CITY           SKY/WX    TMP DP  RH WIND       PRES   REMARKS
GRAND JUNCTION PTCLDY    65  51  60 W3        30.23R
MONTROSE       PTCLDY    63  50  62 S5        30.32R
EAGLE          PTCLDY    48  48 100 CALM      30.47R
RIFLE          CLOUDY    61  55  81 CALM      30.33R
DELTA          PTCLDY    67  48  50 NE5       30.28R
NUCLA          PTCLDY    64  45  48 E10       30.34R
$$

COZ017>023-064>068-271400-
...SOUTHWEST COLORADO...

CITY           SKY/WX    TMP DP  RH WIND       PRES   REMARKS
DURANGO        MOCLDY    61  47  59 CALM      30.38R
CORTEZ         CLEAR     61  49  64 NE6       30.32R
PAGOSA SPRINGS MOCLDY    58  46  63 NE5       30.47S
TELLURIDE      PTCLDY    61  45  55 E5        30.54R
WOLF CREEK PAS NOT AVBL
$$

COZ009-010-012-014-032>034-037-058>063-271400-
...CENTRAL COLORADO...

CITY           SKY/WX    TMP DP  RH WIND       PRES   REMARKS
ASPEN          PTCLDY    48  41  76 SE3       30.48R
BUENA VISTA    CLEAR     51  45  78 N3        30.51R
COPPER MTN     CLEAR     55  30  38 SW5       30.77S
BERTHOUD PASS  FAIR      46  34  61 CALM      30.82S
COTTONWOOD PAS CLEAR     59  43  55 CALM      30.62R
GUNNISON       PTCLDY    50  45  81 NE5       30.51R
KREMMLING      PTCLDY    50  45  81 CALM      30.51R
LEADVILLE      CLEAR     41  38  89 N5        30.61S
MONARCH PASS   PTCLDY    50  39  66 S12       30.86R
SALIDA         CLEAR    N/A N/A N/A CALM      30.56R
SUNLIGHT       MOCLDY    61  37  41 CALM      30.69R
WILKERSON PASS NOT AVBL
$$

COZ069>075-271400-
...SAN LUIS VALLEY/SANGRE DE CRISTO MOUNTAINS...

CITY           SKY/WX    TMP DP  RH WIND       PRES   REMARKS
ALAMOSA        PTCLDY    57  51  80 N6        30.44R
LA VETA PASS   MOSUNNY   54  45  71 E3        30.63R
SAGUACHE       PTCLDY    54  46  76 NW12G17   30.48S
$$

COZ035-036-038>040-271400-
...NORTHERN COLORADO FRONT RANGE...

CITY           SKY/WX    TMP DP  RH WIND       PRES   REMARKS
DENVER INTL AP MOSUNNY   59  56  89 W10       30.32R FOG
DMNS CITY PARK   N/A     62  58  84 NW9G16    30.33R
AURORA         PTSUNNY   60  58  93 NW10      30.34R
FRONT RANGE AP NOT AVBL
ERIE MUNI ARPT CLOUDY    62  59  91 CALM      30.32R
BOULDER MUN AP SUNNY     63  52  67 CALM      30.32R
CENTENNIAL     PTSUNNY   62  54  74 NW12      30.35R
BROOMFIELD     PTSUNNY   63  57  82 N12       30.35R
FORT COLLINS   SUNNY     64  61  88 N10       30.33R
LONGMONT       SUNNY     66  56  69 NW6       30.33R
$$

COZ041-046-047-076>085-087-088-271400-
...PIKES PEAK/PALMER DIVIDE AND SOUTHERN FOOTHILLS...

CITY           SKY/WX    TMP DP  RH WIND       PRES   REMARKS
COLO. SPRINGS  MOSUNNY   61  52  72 N5        30.36R
A. F. ACADEMY  SUNNY     55  52  90 N6        30.39R
ELLICOTT       SUNNY     60  53  77 MISG      30.35R
FALCON         SUNNY     60  52  72 N6        30.41R
FORT CARSON    SUNNY     61  53  73 NW10      30.33R
LIMON          SUNNY     65  61  87 E8        30.33R
MONUMENT HILL  SUNNY     55  50  82 CALM      30.42R
TRINIDAD       MOSUNNY   64  52  64 W8        30.32R
$$

COZ042>045-048>051-090-091-271400-
...NORTHEAST COLORADO...

CITY           SKY/WX    TMP DP  RH WIND       PRES   REMARKS
GREELEY ARPT   MOSUNNY   63  55  77 NE7       30.31R
AKRON          SUNNY     63  61  93 E9        30.31R
BURLINGTON     PTSUNNY   64  60  87 NE3       30.27R FOG
WRAY             N/A    N/A N/A N/A N6        30.28R
STERLING       MOSUNNY   64  63  94 NE9       30.29R
HOLYOKE        SUNNY     63  57  82 NE9       30.29R
FORT MORGAN    SUNNY     64  61  91 NE8       30.31R
$$

COZ086-089-092>099-271400-
...SOUTHEAST COLORADO...

CITY           SKY/WX    TMP DP  RH WIND       PRES   REMARKS
PUEBLO         SUNNY     62  59  90 SW3       30.25R
LA JUNTA       MOSUNNY   67  61  81 E8        30.24R
LAMAR          MOSUNNY   66  64  93 W5        30.21R
SPRINGFIELD      N/A     67  64  90 NW6       30.24R
$$


USA.gov is the U.S. government's official web portal to all federal, state and local government web resources and services.